Santa Ana, CA

10:46 AM PST on February 12, 2016 (GMT -0800)
John Wayne-Orange County

Weather History for KSNA - April, 2013

Change the Weather History Date:

Thursday, April 11, 2013

  Actual Average Record
Temperature  
Mean Temperature 63 °F 61 °F  
Max Temperature 71 °F 68 °F 83 °F (2008)
Min Temperature 54 °F 53 °F 48 °F (1999)
Degree Days  
Heating Degree Days 2 4  
Month to date heating degree days 24 53  
Since 1 July heating degree days 1044 1140  
Cooling Degree Days 0 0  
Month to date cooling degree days 0 0  
Year to date cooling degree days 4 15  
Growing Degree Days 12 (Base 50)    
Moisture  
Dew Point 48 °F    
Average Humidity 55    
Maximum Humidity 72    
Minimum Humidity 37    
Precipitation  
Precipitation 0.00 in 0.03 in 0.69 in (1999)
Month to date precipitation 0.01 0.28  
Year to date precipitation 1.68 8.04  
Since 1 July precipitation 4.70  
Snow  
Snow 0.00 in - - ()
Month to date snowfall 0.0  
Year to date snowfall 0.0  
Since 1 July snowfall 0.0  
Snow Depth 0.00 in    
Sea Level Pressure  
Sea Level Pressure 29.88 in    
Wind  
Wind Speed 6 mph (South)    
Max Wind Speed 20 mph    
Max Gust Speed 25 mph    
Visibility 10 miles    
Events      
T = Trace of Precipitation, MM = Missing Value Source: NWS Daily Summary

Daily Weather History Graph

Daily Weather History Graph

Search for Another Location

Airport or City:

Trip Planner

Search our weather history database for the weather conditions in past years. The results will help you decide how hot, cold, wet, or windy it might be!

Date:

Astronomy

Apr. 11, 2013 Rise Set
Actual Time 6:25 AM PDT 7:19 PM PDT
Civil Twilight 6:00 AM PDT 7:45 PM PDT
Nautical Twilight 5:30 AM PDT 8:15 PM PDT
Astronomical Twilight 4:59 AM PDT 8:46 PM PDT
Moon 7:04 AM PDT (4/11) 8:53 PM PDT (4/11)
Length of Visible Light 13h 45m
Length of Day
12h 54m
New Moon, 2% of the Moon is Illuminated
Apr 11
New Moon
Apr 18
First Quarter
Apr 25
Full
May 2
Last Quarter
May 9
New

Hourly Weather History & Observations

Time (PDT) Temp. Dew Point Humidity Pressure Visibility Wind Dir Wind Speed Gust Speed Precip Events Conditions
12:53 AM 60.1 °F 46.0 °F 60% 30.00 in 10.0 mi Calm Calm - N/A   Clear
1:53 AM 57.9 °F 43.0 °F 58% 29.99 in 10.0 mi East 3.5 mph - N/A   Clear
2:53 AM 57.0 °F 43.0 °F 59% 29.97 in 10.0 mi Calm Calm - N/A   Clear
3:53 AM 55.9 °F 42.1 °F 60% 29.95 in 10.0 mi Calm Calm - N/A   Clear
4:53 AM 55.9 °F 37.9 °F 51% 29.95 in 10.0 mi Calm Calm - N/A   Clear
5:53 AM 55.0 °F 39.0 °F 55% 29.94 in 10.0 mi Calm Calm - N/A   Partly Cloudy
6:53 AM 55.9 °F 41.0 °F 57% 29.94 in 10.0 mi Calm Calm - N/A   Partly Cloudy
7:53 AM 61.0 °F 39.9 °F 46% 29.94 in 10.0 mi Calm Calm - N/A   Partly Cloudy
8:53 AM 64.0 °F 42.1 °F 45% 29.94 in 10.0 mi SSW 3.5 mph - N/A   Partly Cloudy
10:53 AM 70.0 °F 48.0 °F 46% 29.92 in 10.0 mi SSW 8.1 mph - N/A   Partly Cloudy
11:53 AM 70.0 °F 46.9 °F 44% 29.90 in 10.0 mi SSW 13.8 mph 21.9 mph N/A   Partly Cloudy
12:53 PM 68.0 °F 51.1 °F 55% 29.88 in 10.0 mi SSW 17.3 mph - N/A   Scattered Clouds
1:43 PM 66.2 °F 51.8 °F 60% 29.87 in 10.0 mi SSW 13.8 mph - N/A   Partly Cloudy
1:53 PM 66.9 °F 52.0 °F 59% 29.87 in 10.0 mi SSW 15.0 mph - N/A   Scattered Clouds
2:53 PM 66.0 °F 52.0 °F 60% 29.84 in 10.0 mi SSW 16.1 mph - N/A   Scattered Clouds
3:53 PM 63.0 °F 51.1 °F 65% 29.83 in 10.0 mi SSW 17.3 mph - N/A   Scattered Clouds
4:34 PM 62.6 °F 51.8 °F 68% 29.82 in 10.0 mi SW 16.1 mph - N/A   Mostly Cloudy
4:53 PM 61.0 °F 51.1 °F 70% 29.82 in 10.0 mi South 10.4 mph - N/A   Mostly Cloudy
5:46 PM 60.8 °F 51.8 °F 72% 29.81 in 10.0 mi SSW 9.2 mph - N/A   Mostly Cloudy
5:53 PM 61.0 °F 51.1 °F 70% 29.81 in 10.0 mi South 9.2 mph - N/A   Mostly Cloudy
6:53 PM 59.0 °F 50.0 °F 72% 29.81 in 9.0 mi South 12.7 mph - N/A   Scattered Clouds
7:53 PM 57.9 °F 50.0 °F 75% 29.81 in 10.0 mi South 9.2 mph - N/A   Scattered Clouds
8:36 PM 57.2 °F 50.0 °F 77% 29.82 in 10.0 mi South 8.1 mph - N/A   Mostly Cloudy
8:53 PM 57.9 °F 50.0 °F 75% 29.82 in 10.0 mi South 6.9 mph - N/A   Mostly Cloudy
9:53 PM 57.9 °F 50.0 °F 75% 29.83 in 10.0 mi SSW 6.9 mph - N/A   Mostly Cloudy
10:53 PM 57.9 °F 50.0 °F 75% 29.83 in 10.0 mi SSE 3.5 mph - N/A   Mostly Cloudy
11:10 PM 59.0 °F 50.0 °F 72% 29.83 in 10.0 mi SSE 4.6 mph - N/A   Overcast
11:53 PM 57.9 °F 50.0 °F 75% 29.83 in 10.0 mi SSE 4.6 mph - N/A   Overcast